User: anonymous   Login
Location: Acton
(51.4942°N, 0.2232°W)
Time: 02:31:30
(UTC+00:00)
Language:

Meteor 2-13 Rocket - Orbit

View from above orbital plane
View from above orbital plane
View from above satellite
View from above satellite

Ground track
Ground track

The orbit data is extracted from the following two-line orbital elements,

1 16409U 85119B   20334.55798123 +.00000018 +00000-0 +24827-5 0  9993
2 16409 082.5387 075.3053 0016203 085.2751 275.0260 13.84814448765115
Epoch (UTC): 29 November 2020 13:23:29
Eccentricity: 0.0016203
inclination: 82.5387°
perigee height: 935 km
apogee height: 959 km
right ascension of ascending node: 75.3053°
argument of perigee: 85.2751°
revolutions per day: 13.84814448
mean anomaly at epoch: 275.0260°
orbit number at epoch: 76511

The dashed part of the orbit path shows where the satellite is in the earth's shadow,  

DLR